Ypsilanti, MI

8:18 PM EDT on July 27, 2017 (GMT -0400)
Willow Run

Weather History for KYIP - May, 2014

Change the Weather History Date:

Sunday, May 18, 2014

  Actual Average Record
Temperature  
Mean Temperature 54 °F -  
Max Temperature 70 °F 74 °F 93 °F (1998)
Min Temperature 39 °F 50 °F 30 °F (1973)
Degree Days  
Heating Degree Days 11    
Growing Degree Days 4 (Base 50)    
Moisture  
Dew Point 35 °F    
Average Humidity 45    
Maximum Humidity 83    
Minimum Humidity 25    
Precipitation  
Precipitation 0.00 in - - ()
Sea Level Pressure  
Sea Level Pressure 30.23 in    
Wind  
Wind Speed 8 mph (SW)    
Max Wind Speed 16 mph    
Max Gust Speed 22 mph    
Visibility 10 miles    
Events      
Averages and records for this station are not official NWS values.
T = Trace of Precipitation, MM = Missing Value Source: NWS Daily Summary

Daily Weather History Graph

Daily Weather History Graph

Search for Another Location

Airport or City:

Trip Planner

Search our weather history database for the weather conditions in past years. The results will help you decide how hot, cold, wet, or windy it might be!

Date:

Astronomy

May. 18, 2014 Rise Set
Actual Time 6:10 AM EDT 8:51 PM EDT
Civil Twilight 5:37 AM EDT 9:24 PM EDT
Nautical Twilight 4:57 AM EDT 10:04 PM EDT
Astronomical Twilight 4:10 AM EDT 10:51 PM EDT
Moon No Moon Rise 9:58 AM EDT (5/18)
Length of Visible Light 15h 46m
Length of Day
14h 41m
Waning Gibbous, 81% of the Moon is Illuminated
May 18
Waning Gibbous
May 21
Last Quarter
May 28
New
Jun 5
First Quarter
Jun 13
Full

Hourly Weather History & Observations

Time (EDT) Temp. Windchill Dew Point Humidity Pressure Visibility Wind Dir Wind Speed Gust Speed Precip Events Conditions
2:53 AM 43.0 °F 41.3 °F 36.0 °F 76% 30.21 in 10.0 mi SSW 3.5 mph - N/A   Clear
4:53 AM 39.9 °F 36.7 °F 35.1 °F 83% 30.23 in 10.0 mi SW 4.6 mph - N/A   Clear
5:53 AM 39.9 °F - 34.0 °F 79% 30.24 in 10.0 mi Calm Calm - N/A   Clear
6:53 AM 39.9 °F 36.7 °F 35.1 °F 83% 30.25 in 10.0 mi SW 4.6 mph - N/A   Clear
7:53 AM 48.0 °F - 39.9 °F 74% 30.25 in 10.0 mi SW 4.6 mph - N/A   Clear
9:53 AM 60.1 °F - 37.0 °F 42% 30.27 in 10.0 mi West 10.4 mph - N/A   Mostly Cloudy
10:53 AM 64.0 °F - 36.0 °F 35% 30.27 in 10.0 mi West 12.7 mph - N/A   Overcast
11:53 AM 66.0 °F - 34.0 °F 30% 30.26 in 10.0 mi WSW 12.7 mph 19.6 mph N/A   Partly Cloudy
12:53 PM 68.0 °F - 33.1 °F 27% 30.25 in 10.0 mi SW 15.0 mph 18.4 mph N/A   Scattered Clouds
1:53 PM 66.9 °F - 30.0 °F 25% 30.24 in 10.0 mi Variable 5.8 mph 17.3 mph N/A   Scattered Clouds
2:53 PM 68.0 °F - 34.0 °F 28% 30.23 in 10.0 mi SW 15.0 mph 21.9 mph N/A   Scattered Clouds
3:53 PM 68.0 °F - 33.1 °F 27% 30.22 in 10.0 mi WSW 12.7 mph 18.4 mph N/A   Mostly Cloudy
4:53 PM 66.9 °F - 33.1 °F 28% 30.22 in 10.0 mi SW 16.1 mph - N/A   Mostly Cloudy
5:53 PM 69.1 °F - 33.1 °F 26% 30.21 in 10.0 mi SW 13.8 mph 20.7 mph N/A   Partly Cloudy
6:53 PM 66.9 °F - 33.1 °F 28% 30.21 in 10.0 mi SW 12.7 mph - N/A   Clear
7:53 PM 64.9 °F - 33.1 °F 31% 30.21 in 10.0 mi SW 11.5 mph - N/A   Clear
8:53 PM 61.0 °F - 35.1 °F 38% 30.21 in 10.0 mi SSW 9.2 mph - N/A   Clear
9:53 PM 55.9 °F - 37.0 °F 49% 30.22 in 10.0 mi SSW 8.1 mph - N/A   Clear
10:53 PM 54.0 °F - 37.0 °F 53% 30.23 in 10.0 mi SW 9.2 mph - N/A   Clear